Time,TemperatureF,DewpointF,PressureIn,WindDirection,WindDirectionDegrees,WindSpeedMPH,WindSpeedGustMPH,Humidity,HourlyPrecipIn,Conditions,Clouds,dailyrainin,SoftwareType,DateUTC
2013-08-05 00:02:00,76.1,60.8,29.68,ENE,72,0.0,0.0,58,0.00,,,0.00,WUHU216WMR968SP,2013-08-05 05:02:00,
2013-08-05 00:07:00,75.9,59.0,29.68,ENE,72,0.0,0.0,58,0.00,,,0.00,WUHU216WMR968SP,2013-08-05 05:07:00,
2013-08-05 00:12:00,75.6,59.0,29.68,ENE,72,0.0,0.0,58,0.00,,,0.00,WUHU216WMR968SP,2013-08-05 05:12:00,
2013-08-05 00:17:00,75.4,59.0,29.68,North,8,0.0,3.1,58,0.00,,,0.00,WUHU216WMR968SP,2013-08-05 05:17:00,
2013-08-05 00:22:00,75.7,59.0,29.68,NE,43,0.0,3.6,57,0.00,,,0.00,WUHU216WMR968SP,2013-08-05 05:22:00,
2013-08-05 00:27:00,76.1,60.8,29.68,ENE,75,0.0,3.6,56,0.00,,,0.00,WUHU216WMR968SP,2013-08-05 05:27:00,
2013-08-05 00:32:00,76.1,59.0,29.68,ENE,66,0.0,3.6,55,0.00,,,0.00,WUHU216WMR968SP,2013-08-05 05:32:00,
2013-08-05 00:37:00,76.1,59.0,29.68,North,357,0.0,0.0,54,0.00,,,0.00,WUHU216WMR968SP,2013-08-05 05:37:00,
2013-08-05 00:42:00,75.7,57.2,29.68,NE,56,2.2,3.6,54,0.00,,,0.00,WUHU216WMR968SP,2013-08-05 05:42:00,
2013-08-05 00:47:00,75.4,57.2,29.68,NE,45,0.0,3.6,55,0.00,,,0.00,WUHU216WMR968SP,2013-08-05 05:47:00,
2013-08-05 00:52:00,75.2,59.0,29.68,NNE,14,0.0,3.1,56,0.00,,,0.00,WUHU216WMR968SP,2013-08-05 05:52:00,
2013-08-05 00:57:00,75.2,59.0,29.68,ESE,117,0.0,3.1,57,0.00,,,0.00,WUHU216WMR968SP,2013-08-05 05:57:00,
2013-08-05 01:02:00,75.4,59.0,29.68,NNE,30,0.0,3.1,56,0.00,,,0.00,WUHU216WMR968SP,2013-08-05 06:02:00,
2013-08-05 01:07:00,75.6,57.2,29.68,NNE,29,0.0,3.1,54,0.00,,,0.00,WUHU216WMR968SP,2013-08-05 06:07:00,
2013-08-05 01:12:00,75.7,57.2,29.68,East,99,2.2,3.1,53,0.00,,,0.00,WUHU216WMR968SP,2013-08-05 06:12:00,
2013-08-05 01:17:00,75.6,57.2,29.68,NE,38,0.0,4.0,53,0.00,,,0.00,WUHU216WMR968SP,2013-08-05 06:17:00,
2013-08-05 01:21:00,75.2,57.2,29.68,NNE,19,0.0,4.0,53,0.00,,,0.00,WUHU216WMR968SP,2013-08-05 06:21:00,
2013-08-05 01:27:00,75.0,57.2,29.68,NNE,19,0.0,3.1,55,0.00,,,0.00,WUHU216WMR968SP,2013-08-05 06:27:00,
2013-08-05 01:31:00,74.8,59.0,29.68,ESE,108,0.0,2.2,56,0.00,,,0.00,WUHU216WMR968SP,2013-08-05 06:31:00,
2013-08-05 01:37:00,74.8,59.0,29.68,ESE,107,0.0,2.2,57,0.00,,,0.00,WUHU216WMR968SP,2013-08-05 06:37:00,
2013-08-05 01:42:00,75.0,59.0,29.68,ESE,107,0.0,0.0,56,0.00,,,0.00,WUHU216WMR968SP,2013-08-05 06:42:00,
2013-08-05 01:46:00,75.0,57.2,29.68,East,81,0.0,0.0,54,0.00,,,0.00,WUHU216WMR968SP,2013-08-05 06:46:00,
2013-08-05 01:52:00,74.8,57.2,29.65,NE,34,0.0,2.7,54,0.00,,,0.00,WUHU216WMR968SP,2013-08-05 06:52:00,
2013-08-05 01:57:00,74.5,57.2,29.65,NE,42,2.2,4.0,54,0.00,,,0.00,WUHU216WMR968SP,2013-08-05 06:57:00,
2013-08-05 02:02:00,74.5,57.2,29.65,East,94,0.0,4.0,54,0.00,,,0.00,WUHU216WMR968SP,2013-08-05 07:02:00,
2013-08-05 02:07:00,74.3,57.2,29.65,ESE,113,0.0,4.9,54,0.00,,,0.00,WUHU216WMR968SP,2013-08-05 07:07:00,
2013-08-05 02:12:00,74.5,57.2,29.65,ESE,107,2.7,4.9,54,0.00,,,0.00,WUHU216WMR968SP,2013-08-05 07:12:00,
2013-08-05 02:17:00,74.8,55.4,29.65,ENE,75,2.7,5.8,51,0.00,,,0.00,WUHU216WMR968SP,2013-08-05 07:17:00,
2013-08-05 02:21:00,75.0,55.4,29.65,East,86,0.0,5.8,51,0.00,,,0.00,WUHU216WMR968SP,2013-08-05 07:21:00,
2013-08-05 02:27:00,74.8,55.4,29.65,East,86,0.0,3.1,50,0.00,,,0.00,WUHU216WMR968SP,2013-08-05 07:27:00,
2013-08-05 02:31:00,74.7,55.4,29.65,East,86,0.0,3.1,50,0.00,,,0.00,WUHU216WMR968SP,2013-08-05 07:31:00,
2013-08-05 02:37:00,74.5,55.4,29.65,ENE,66,2.2,4.0,51,0.00,,,0.00,WUHU216WMR968SP,2013-08-05 07:37:00,
2013-08-05 02:42:00,74.3,55.4,29.65,North,9,0.0,4.0,51,0.00,,,0.00,WUHU216WMR968SP,2013-08-05 07:42:00,
2013-08-05 02:47:00,74.1,53.6,29.65,ENE,63,0.0,3.1,51,0.00,,,0.00,WUHU216WMR968SP,2013-08-05 07:47:00,
2013-08-05 02:52:00,74.3,57.2,29.65,NNE,31,0.0,0.0,52,0.00,,,0.00,WUHU216WMR968SP,2013-08-05 07:52:00,
2013-08-05 02:57:00,74.3,57.2,29.65,NNE,31,0.0,0.0,52,0.00,,,0.00,WUHU216WMR968SP,2013-08-05 07:57:00,
2013-08-05 03:02:00,74.3,57.2,29.65,NNE,31,0.0,0.0,53,0.00,,,0.00,WUHU216WMR968SP,2013-08-05 08:02:00,
2013-08-05 03:07:00,73.9,57.2,29.65,NNE,31,0.0,0.0,55,0.00,,,0.00,WUHU216WMR968SP,2013-08-05 08:07:00,
2013-08-05 03:12:00,73.8,57.2,29.65,NNE,31,0.0,0.0,57,0.00,,,0.00,WUHU216WMR968SP,2013-08-05 08:12:00,
2013-08-05 03:17:00,73.4,59.0,29.65,NNE,31,0.0,0.0,59,0.00,,,0.00,WUHU216WMR968SP,2013-08-05 08:17:00,
2013-08-05 03:22:00,73.2,59.0,29.65,NNE,31,0.0,0.0,60,0.00,,,0.00,WUHU216WMR968SP,2013-08-05 08:22:00,
2013-08-05 03:27:00,73.2,59.0,29.65,NNE,31,0.0,0.0,60,0.00,,,0.00,WUHU216WMR968SP,2013-08-05 08:27:00,
2013-08-05 03:32:00,73.2,59.0,29.65,NNE,31,0.0,0.0,61,0.00,,,0.00,WUHU216WMR968SP,2013-08-05 08:32:00,
2013-08-05 03:37:00,73.2,59.0,29.68,NNE,31,0.0,0.0,62,0.00,,,0.00,WUHU216WMR968SP,2013-08-05 08:37:00,
2013-08-05 03:42:00,73.2,59.0,29.68,NNE,31,0.0,0.0,62,0.00,,,0.00,WUHU216WMR968SP,2013-08-05 08:42:00,
2013-08-05 03:47:00,73.2,59.0,29.68,NNE,31,0.0,0.0,61,0.00,,,0.00,WUHU216WMR968SP,2013-08-05 08:47:00,
2013-08-05 03:53:00,73.0,59.0,29.65,NNE,31,0.0,0.0,60,0.00,,,0.00,WUHU216WMR968SP,2013-08-05 08:53:00,
2013-08-05 03:58:00,72.1,57.2,29.65,North,2,0.0,0.0,61,0.00,,,0.00,WUHU216WMR968SP,2013-08-05 08:58:00,
2013-08-05 04:03:00,71.8,59.0,29.65,North,2,0.0,0.0,64,0.00,,,0.00,WUHU216WMR968SP,2013-08-05 09:03:00,
2013-08-05 04:08:00,71.8,60.8,29.68,North,2,0.0,0.0,69,0.00,,,0.00,WUHU216WMR968SP,2013-08-05 09:08:00,
2013-08-05 04:13:00,71.4,60.8,29.68,North,2,0.0,0.0,70,0.00,,,0.00,WUHU216WMR968SP,2013-08-05 09:13:00,
2013-08-05 04:18:00,71.1,60.8,29.68,North,2,0.0,0.0,71,0.00,,,0.00,WUHU216WMR968SP,2013-08-05 09:18:00,
2013-08-05 04:23:00,70.7,62.6,29.68,North,2,0.0,0.0,73,0.00,,,0.00,WUHU216WMR968SP,2013-08-05 09:23:00,
2013-08-05 04:28:00,70.3,60.8,29.68,North,2,0.0,0.0,75,0.00,,,0.00,WUHU216WMR968SP,2013-08-05 09:28:00,
2013-08-05 04:33:00,70.2,62.6,29.68,North,2,0.0,0.0,76,0.00,,,0.00,WUHU216WMR968SP,2013-08-05 09:33:00,
2013-08-05 04:38:00,70.0,62.6,29.68,North,2,0.0,0.0,77,0.00,,,0.00,WUHU216WMR968SP,2013-08-05 09:38:00,
2013-08-05 04:44:00,70.2,62.6,29.68,ESE,115,0.0,0.0,79,0.00,,,0.00,WUHU216WMR968SP,2013-08-05 09:44:00,
2013-08-05 04:49:00,70.2,64.4,29.68,ESE,115,0.0,0.0,81,0.00,,,0.00,WUHU216WMR968SP,2013-08-05 09:49:00,
2013-08-05 04:54:00,70.0,64.4,29.68,ESE,115,0.0,0.0,82,0.00,,,0.00,WUHU216WMR968SP,2013-08-05 09:54:00,
2013-08-05 04:59:00,69.8,64.4,29.68,ESE,115,0.0,0.0,83,0.00,,,0.00,WUHU216WMR968SP,2013-08-05 09:59:00,
2013-08-05 05:04:00,69.8,64.4,29.68,NNE,12,0.0,2.2,83,0.00,,,0.00,WUHU216WMR968SP,2013-08-05 10:04:00,
2013-08-05 05:10:00,69.6,64.4,29.68,NNE,12,0.0,3.6,84,0.00,,,0.00,WUHU216WMR968SP,2013-08-05 10:10:00,
2013-08-05 05:15:00,69.6,64.4,29.68,NNE,12,0.0,2.7,85,0.00,,,0.00,WUHU216WMR968SP,2013-08-05 10:15:00,
2013-08-05 05:20:00,69.6,64.4,29.68,NNE,12,0.0,2.2,85,0.00,,,0.00,WUHU216WMR968SP,2013-08-05 10:20:00,
2013-08-05 05:25:00,69.6,66.2,29.68,NNE,12,0.0,0.0,86,0.00,,,0.00,WUHU216WMR968SP,2013-08-05 10:25:00,
2013-08-05 05:30:00,69.8,66.2,29.68,NNE,32,0.0,0.0,86,0.00,,,0.00,WUHU216WMR968SP,2013-08-05 10:30:00,
2013-08-05 05:36:00,69.6,66.2,29.68,North,0,0.0,2.7,87,0.00,,,0.00,WUHU216WMR968SP,2013-08-05 10:36:00,
2013-08-05 05:41:00,69.4,66.2,29.68,NW,319,0.0,3.1,87,0.00,,,0.00,WUHU216WMR968SP,2013-08-05 10:41:00,
2013-08-05 05:46:00,69.4,66.2,29.68,ENE,73,2.2,4.0,87,0.00,,,0.00,WUHU216WMR968SP,2013-08-05 10:46:00,
2013-08-05 05:51:00,69.4,66.2,29.68,ENE,68,0.0,4.0,88,0.00,,,0.00,WUHU216WMR968SP,2013-08-05 10:51:00,
2013-08-05 05:56:00,69.4,66.2,29.68,NNE,17,0.0,2.7,88,0.00,,,0.00,WUHU216WMR968SP,2013-08-05 10:56:00,
2013-08-05 06:01:00,69.3,66.2,29.68,ESE,119,0.0,2.7,88,0.00,,,0.00,WUHU216WMR968SP,2013-08-05 11:01:00,
2013-08-05 06:06:00,69.4,66.2,29.68,ESE,110,0.0,2.7,89,0.00,,,0.00,WUHU216WMR968SP,2013-08-05 11:06:00,
2013-08-05 06:12:00,69.4,66.2,29.68,SE,136,0.0,3.1,89,0.00,,,0.00,WUHU216WMR968SP,2013-08-05 11:12:00,
2013-08-05 06:17:00,69.4,66.2,29.68,East,96,0.0,3.1,89,0.00,,,0.00,WUHU216WMR968SP,2013-08-05 11:17:00,
2013-08-05 06:22:00,69.4,66.2,29.68,ESE,115,2.2,3.6,89,0.00,,,0.00,WUHU216WMR968SP,2013-08-05 11:22:00,
2013-08-05 06:27:00,69.4,66.2,29.68,ESE,118,3.1,4.0,89,0.00,,,0.00,WUHU216WMR968SP,2013-08-05 11:27:00,
2013-08-05 06:32:00,69.3,66.2,29.68,ESE,117,3.8,5.8,90,0.00,,,0.00,WUHU216WMR968SP,2013-08-05 11:32:00,
2013-08-05 06:37:00,69.4,66.2,29.65,ENE,68,2.6,5.8,90,0.00,,,0.00,WUHU216WMR968SP,2013-08-05 11:37:00,
2013-08-05 06:42:00,69.4,66.2,29.65,SSW,195,0.0,4.9,90,0.00,,,0.00,WUHU216WMR968SP,2013-08-05 11:42:00,
2013-08-05 06:47:00,69.4,66.2,29.65,SE,124,0.0,2.7,90,0.00,,,0.00,WUHU216WMR968SP,2013-08-05 11:47:00,
2013-08-05 06:52:00,69.6,66.2,29.68,ESE,111,2.9,6.3,90,0.00,,,0.00,WUHU216WMR968SP,2013-08-05 11:52:00,
2013-08-05 06:57:00,69.4,66.2,29.68,East,98,0.0,6.3,90,0.00,,,0.00,WUHU216WMR968SP,2013-08-05 11:57:00,
2013-08-05 07:02:00,69.4,66.2,29.68,East,98,0.0,3.6,90,0.00,,,0.00,WUHU216WMR968SP,2013-08-05 12:02:00,
2013-08-05 07:07:00,69.4,66.2,29.68,SE,129,3.1,5.8,91,0.00,,,0.00,WUHU216WMR968SP,2013-08-05 12:07:00,
2013-08-05 07:13:00,69.6,66.2,29.68,SE,129,0.0,5.8,91,0.00,,,0.00,WUHU216WMR968SP,2013-08-05 12:13:00,
2013-08-05 07:17:00,69.6,66.2,29.68,SE,132,0.0,4.9,91,0.00,,,0.00,WUHU216WMR968SP,2013-08-05 12:17:00,
2013-08-05 07:23:00,69.8,66.2,29.68,East,99,0.0,4.9,91,0.00,,,0.00,WUHU216WMR968SP,2013-08-05 12:23:00,
2013-08-05 07:28:00,69.8,66.2,29.68,SE,125,2.7,3.6,91,0.00,,,0.00,WUHU216WMR968SP,2013-08-05 12:28:00,
2013-08-05 07:33:00,69.8,66.2,29.68,North,353,0.0,3.6,91,0.00,,,0.00,WUHU216WMR968SP,2013-08-05 12:33:00,
2013-08-05 07:38:00,69.8,66.2,29.68,SSE,167,0.0,3.1,91,0.00,,,0.00,WUHU216WMR968SP,2013-08-05 12:38:00,
2013-08-05 07:43:00,70.0,66.2,29.68,SSE,152,0.0,2.2,91,0.00,,,0.00,WUHU216WMR968SP,2013-08-05 12:43:00,
2013-08-05 07:48:00,70.0,66.2,29.68,SE,124,0.0,4.0,91,0.00,,,0.00,WUHU216WMR968SP,2013-08-05 12:48:00,
2013-08-05 07:54:00,70.2,66.2,29.68,East,92,0.0,4.0,91,0.00,,,0.00,WUHU216WMR968SP,2013-08-05 12:54:00,
2013-08-05 07:59:00,70.3,66.2,29.68,SSE,161,0.0,3.6,91,0.00,,,0.00,WUHU216WMR968SP,2013-08-05 12:59:00,
2013-08-05 08:04:00,70.3,66.2,29.68,ESE,111,0.0,3.1,91,0.00,,,0.00,WUHU216WMR968SP,2013-08-05 13:04:00,
2013-08-05 08:08:00,70.5,66.2,29.68,SSE,153,0.0,3.6,91,0.00,,,0.00,WUHU216WMR968SP,2013-08-05 13:08:00,
2013-08-05 08:13:00,70.7,68.0,29.68,ESE,114,0.0,5.8,91,0.00,,,0.00,WUHU216WMR968SP,2013-08-05 13:13:00,
2013-08-05 08:19:00,70.9,68.0,29.68,SSW,194,2.2,5.8,91,0.00,,,0.00,WUHU216WMR968SP,2013-08-05 13:19:00,
2013-08-05 08:24:00,71.2,68.0,29.65,South,189,0.0,4.0,91,0.00,,,0.00,WUHU216WMR968SP,2013-08-05 13:24:00,
2013-08-05 08:29:00,71.4,68.0,29.65,South,173,0.0,3.6,91,0.00,,,0.00,WUHU216WMR968SP,2013-08-05 13:29:00,
2013-08-05 08:34:00,72.1,68.0,29.65,SSE,158,2.8,4.0,90,0.00,,,0.00,WUHU216WMR968SP,2013-08-05 13:34:00,
2013-08-05 08:39:00,72.5,69.8,29.68,SSE,159,0.0,4.9,90,0.00,,,0.00,WUHU216WMR968SP,2013-08-05 13:39:00,
2013-08-05 08:45:00,72.7,69.8,29.68,South,185,0.0,4.9,90,0.00,,,0.00,WUHU216WMR968SP,2013-08-05 13:45:00,
2013-08-05 08:50:00,73.0,69.8,29.68,ESE,123,0.0,0.0,89,0.00,,,0.00,WUHU216WMR968SP,2013-08-05 13:50:00,
2013-08-05 08:55:00,73.0,69.8,29.68,East,99,0.0,0.0,89,0.00,,,0.00,WUHU216WMR968SP,2013-08-05 13:55:00,
2013-08-05 09:00:00,73.4,69.8,29.68,SSE,157,0.0,0.0,87,0.00,,,0.00,WUHU216WMR968SP,2013-08-05 14:00:00,
2013-08-05 09:05:00,73.8,68.0,29.68,SE,130,0.0,0.0,82,0.00,,,0.00,WUHU216WMR968SP,2013-08-05 14:05:00,
2013-08-05 09:10:00,74.1,66.2,29.68,East,94,0.0,3.6,79,0.00,,,0.00,WUHU216WMR968SP,2013-08-05 14:10:00,
2013-08-05 09:15:00,74.5,68.0,29.68,ESE,108,0.0,3.6,78,0.00,,,0.00,WUHU216WMR968SP,2013-08-05 14:15:00,
2013-08-05 09:20:00,75.2,68.0,29.68,SSW,198,0.0,3.6,77,0.00,,,0.00,WUHU216WMR968SP,2013-08-05 14:20:00,
2013-08-05 09:26:00,75.6,66.2,29.68,SSE,158,2.2,4.0,74,0.00,,,0.00,WUHU216WMR968SP,2013-08-05 14:26:00,
2013-08-05 09:32:00,76.3,66.2,29.68,SSE,154,0.0,4.0,67,0.00,,,0.00,WUHU216WMR968SP,2013-08-05 14:32:00,
2013-08-05 09:37:00,77.0,62.6,29.68,SE,136,2.6,4.0,62,0.00,,,0.00,WUHU216WMR968SP,2013-08-05 14:37:00,
2013-08-05 09:43:00,78.1,64.4,29.68,SSE,151,0.0,4.0,60,0.00,,,0.00,WUHU216WMR968SP,2013-08-05 14:43:00,
2013-08-05 09:48:00,79.0,62.6,29.68,ESE,118,2.2,5.4,56,0.00,,,0.00,WUHU216WMR968SP,2013-08-05 14:48:00,
2013-08-05 09:53:00,79.3,60.8,29.68,South,174,0.0,5.4,53,0.00,,,0.00,WUHU216WMR968SP,2013-08-05 14:53:00,
2013-08-05 09:58:00,79.7,62.6,29.68,SSE,166,0.0,4.0,53,0.00,,,0.00,WUHU216WMR968SP,2013-08-05 14:58:00,
2013-08-05 10:03:00,79.9,59.0,29.68,SSE,151,2.2,4.0,49,0.00,,,0.00,WUHU216WMR968SP,2013-08-05 15:03:00,
2013-08-05 10:09:00,80.4,59.0,29.65,East,85,3.6,4.9,47,0.00,,,0.00,WUHU216WMR968SP,2013-08-05 15:09:00,
2013-08-05 10:13:00,81.0,59.0,29.65,SSW,198,2.2,4.9,47,0.00,,,0.00,WUHU216WMR968SP,2013-08-05 15:13:00,
2013-08-05 10:19:00,81.7,60.8,29.65,South,185,0.0,4.0,49,0.00,,,0.00,WUHU216WMR968SP,2013-08-05 15:19:00,
2013-08-05 10:24:00,82.8,59.0,29.65,South,171,0.0,2.2,46,0.00,,,0.00,WUHU216WMR968SP,2013-08-05 15:24:00,
2013-08-05 10:29:00,83.3,59.0,29.65,South,175,0.0,0.0,42,0.00,,,0.00,WUHU216WMR968SP,2013-08-05 15:29:00,
2013-08-05 10:34:00,83.3,59.0,29.65,South,183,0.0,0.0,42,0.00,,,0.00,WUHU216WMR968SP,2013-08-05 15:34:00,
2013-08-05 10:39:00,83.8,59.0,29.65,South,191,0.0,0.0,42,0.00,,,0.00,WUHU216WMR968SP,2013-08-05 15:39:00,
2013-08-05 10:45:00,84.6,57.2,29.65,SSE,167,0.0,3.1,39,0.00,,,0.00,WUHU216WMR968SP,2013-08-05 15:45:00,
2013-08-05 10:50:00,85.6,57.2,29.68,South,184,2.2,3.6,38,0.00,,,0.00,WUHU216WMR968SP,2013-08-05 15:50:00,
2013-08-05 10:56:00,85.8,55.4,29.68,South,188,3.1,4.0,36,0.00,,,0.00,WUHU216WMR968SP,2013-08-05 15:56:00,
2013-08-05 11:01:00,85.6,57.2,29.68,South,169,2.9,5.4,38,0.00,,,0.00,WUHU216WMR968SP,2013-08-05 16:01:00,
2013-08-05 11:06:00,85.8,59.0,29.65,SSW,192,0.0,5.4,39,0.00,,,0.00,WUHU216WMR968SP,2013-08-05 16:06:00,
2013-08-05 11:11:00,85.8,57.2,29.65,SE,142,2.7,4.9,38,0.00,,,0.00,WUHU216WMR968SP,2013-08-05 16:11:00,
2013-08-05 11:16:00,86.4,57.2,29.65,South,191,2.2,4.9,38,0.00,,,0.00,WUHU216WMR968SP,2013-08-05 16:16:00,
2013-08-05 11:21:00,87.1,59.0,29.65,SE,141,3.1,4.0,37,0.00,,,0.00,WUHU216WMR968SP,2013-08-05 16:21:00,
2013-08-05 11:26:00,86.9,57.2,29.65,South,170,0.0,5.4,35,0.00,,,0.00,WUHU216WMR968SP,2013-08-05 16:26:00,
2013-08-05 11:31:00,86.7,55.4,29.65,SSE,165,3.0,5.4,35,0.00,,,0.00,WUHU216WMR968SP,2013-08-05 16:31:00,
2013-08-05 11:36:00,86.9,55.4,29.65,South,169,3.6,5.8,34,0.00,,,0.00,WUHU216WMR968SP,2013-08-05 16:36:00,
2013-08-05 11:41:00,87.3,57.2,29.65,South,177,3.1,5.8,35,0.00,,,0.00,WUHU216WMR968SP,2013-08-05 16:41:00,
2013-08-05 11:46:00,87.4,55.4,29.65,South,170,3.1,5.8,34,0.00,,,0.00,WUHU216WMR968SP,2013-08-05 16:46:00,
2013-08-05 11:52:00,87.1,55.4,29.65,SSE,164,3.8,6.3,34,0.00,,,0.00,WUHU216WMR968SP,2013-08-05 16:52:00,
2013-08-05 11:57:00,87.1,59.0,29.65,South,173,2.9,6.3,37,0.00,,,0.00,WUHU216WMR968SP,2013-08-05 16:57:00,
2013-08-05 12:02:00,87.3,57.2,29.65,South,182,3.2,5.4,35,0.00,,,0.00,WUHU216WMR968SP,2013-08-05 17:02:00,
2013-08-05 12:07:00,87.8,57.2,29.65,SSE,150,3.1,5.4,35,0.00,,,0.00,WUHU216WMR968SP,2013-08-05 17:07:00,
2013-08-05 12:12:00,88.2,53.6,29.65,SSE,154,3.6,5.4,32,0.00,,,0.00,WUHU216WMR968SP,2013-08-05 17:12:00,
2013-08-05 12:17:00,87.4,55.4,29.65,SSW,194,3.1,5.4,33,0.00,,,0.00,WUHU216WMR968SP,2013-08-05 17:17:00,
2013-08-05 12:22:00,84.2,57.2,29.65,SSW,193,0.0,5.4,39,0.00,,,0.00,WUHU216WMR968SP,2013-08-05 17:22:00,
2013-08-05 12:28:00,80.2,60.8,29.65,South,191,2.2,3.6,52,0.00,,,0.00,WUHU216WMR968SP,2013-08-05 17:28:00,
2013-08-05 12:33:00,77.9,64.4,29.65,South,191,0.0,3.6,62,0.00,,,0.00,WUHU216WMR968SP,2013-08-05 17:33:00,
2013-08-05 12:39:00,77.2,66.2,29.65,South,191,0.0,0.0,70,0.00,,,0.00,WUHU216WMR968SP,2013-08-05 17:39:00,
2013-08-05 12:44:00,76.8,69.8,29.65,South,191,0.0,0.0,77,0.00,,,0.00,WUHU216WMR968SP,2013-08-05 17:44:00,
2013-08-05 12:49:00,76.8,71.6,29.65,NW,325,0.0,3.1,82,0.00,,,0.00,WUHU216WMR968SP,2013-08-05 17:49:00,
2013-08-05 12:54:00,75.9,69.8,29.65,NW,310,3.3,4.0,82,0.00,,,0.00,WUHU216WMR968SP,2013-08-05 17:54:00,
2013-08-05 12:59:00,75.7,69.8,29.65,West,276,0.0,4.0,83,0.00,,,0.00,WUHU216WMR968SP,2013-08-05 17:59:00,
2013-08-05 13:04:00,75.6,69.8,29.65,West,276,0.0,3.1,83,0.00,,,0.00,WUHU216WMR968SP,2013-08-05 18:04:00,
2013-08-05 13:09:00,75.6,69.8,29.65,NNW,339,0.0,2.7,83,0.00,,,0.00,WUHU216WMR968SP,2013-08-05 18:09:00,
2013-08-05 13:15:00,75.7,69.8,29.65,NNW,339,0.0,2.7,83,0.00,,,0.00,WUHU216WMR968SP,2013-08-05 18:15:00,
2013-08-05 13:20:00,75.9,69.8,29.65,NNW,339,0.0,0.0,84,0.00,,,0.00,WUHU216WMR968SP,2013-08-05 18:20:00,
2013-08-05 13:25:00,76.1,71.6,29.65,NNW,339,0.0,0.0,84,0.00,,,0.00,WUHU216WMR968SP,2013-08-05 18:25:00,
2013-08-05 13:30:00,76.5,71.6,29.65,NNW,339,0.0,0.0,85,0.00,,,0.00,WUHU216WMR968SP,2013-08-05 18:30:00,
2013-08-05 13:35:00,77.0,71.6,29.65,NNW,339,0.0,0.0,85,0.00,,,0.00,WUHU216WMR968SP,2013-08-05 18:35:00,
2013-08-05 13:40:00,78.1,73.4,29.65,ESE,107,0.0,2.2,85,0.00,,,0.00,WUHU216WMR968SP,2013-08-05 18:40:00,
2013-08-05 13:45:00,78.3,73.4,29.65,ESE,107,0.0,2.2,84,0.00,,,0.00,WUHU216WMR968SP,2013-08-05 18:45:00,
2013-08-05 13:50:00,78.1,73.4,29.65,ESE,107,0.0,0.0,83,0.00,,,0.00,WUHU216WMR968SP,2013-08-05 18:50:00,
2013-08-05 13:55:00,77.9,73.4,29.62,ESE,107,0.0,0.0,82,0.00,,,0.00,WUHU216WMR968SP,2013-08-05 18:55:00,
2013-08-05 14:01:00,77.2,71.6,29.62,NNE,24,0.0,0.0,81,0.00,,,0.00,WUHU216WMR968SP,2013-08-05 19:01:00,
2013-08-05 14:06:00,77.4,71.6,29.62,SE,136,0.0,0.0,82,0.00,,,0.00,WUHU216WMR968SP,2013-08-05 19:06:00,
2013-08-05 14:11:00,77.4,71.6,29.62,SE,136,0.0,0.0,82,0.00,,,0.00,WUHU216WMR968SP,2013-08-05 19:11:00,
2013-08-05 14:17:00,77.7,71.6,29.62,SE,136,0.0,0.0,81,0.00,,,0.00,WUHU216WMR968SP,2013-08-05 19:17:00,
2013-08-05 14:22:00,78.4,73.4,29.62,SE,136,0.0,0.0,82,0.00,,,0.00,WUHU216WMR968SP,2013-08-05 19:22:00,
2013-08-05 14:27:00,79.2,71.6,29.62,ESE,107,0.0,3.1,80,0.00,,,0.00,WUHU216WMR968SP,2013-08-05 19:27:00,
2013-08-05 14:32:00,80.1,73.4,29.62,East,99,0.0,3.1,77,0.00,,,0.00,WUHU216WMR968SP,2013-08-05 19:32:00,
2013-08-05 14:37:00,80.8,71.6,29.59,ESE,102,2.2,4.0,72,0.00,,,0.00,WUHU216WMR968SP,2013-08-05 19:37:00,
2013-08-05 14:42:00,81.3,68.0,29.59,ESE,104,0.0,4.0,67,0.00,,,0.00,WUHU216WMR968SP,2013-08-05 19:42:00,
2013-08-05 14:47:00,81.9,68.0,29.59,South,175,0.0,4.0,62,0.00,,,0.00,WUHU216WMR968SP,2013-08-05 19:47:00,
2013-08-05 14:52:00,82.0,68.0,29.59,ESE,109,0.0,4.5,61,0.00,,,0.00,WUHU216WMR968SP,2013-08-05 19:52:00,
2013-08-05 14:57:00,82.2,66.2,29.59,SSE,151,0.0,4.5,59,0.00,,,0.00,WUHU216WMR968SP,2013-08-05 19:57:00,
2013-08-05 15:02:00,82.4,66.2,29.59,SSE,151,0.0,2.2,58,0.00,,,0.00,WUHU216WMR968SP,2013-08-05 20:02:00,
2013-08-05 15:07:00,82.0,66.2,29.62,North,353,3.1,6.3,57,0.00,,,0.00,WUHU216WMR968SP,2013-08-05 20:07:00,
2013-08-05 15:12:00,81.5,66.2,29.62,North,1,5.6,9.2,59,0.00,,,0.00,WUHU216WMR968SP,2013-08-05 20:12:00,
2013-08-05 15:18:00,80.1,66.2,29.62,North,358,7.1,10.5,60,0.00,,,0.00,WUHU216WMR968SP,2013-08-05 20:18:00,
2013-08-05 15:23:00,79.3,64.4,29.62,North,0,7.2,12.3,60,0.00,,,0.00,WUHU216WMR968SP,2013-08-05 20:23:00,
2013-08-05 15:28:00,79.0,62.6,29.62,NNE,12,4.5,12.3,59,0.00,,,0.00,WUHU216WMR968SP,2013-08-05 20:28:00,
2013-08-05 15:33:00,78.4,64.4,29.62,North,7,3.8,8.7,60,0.00,,,0.00,WUHU216WMR968SP,2013-08-05 20:33:00,
2013-08-05 15:38:00,77.4,62.6,29.62,NNE,19,7.2,10.1,61,0.00,,,0.00,WUHU216WMR968SP,2013-08-05 20:38:00,
2013-08-05 15:43:00,75.7,64.4,29.62,NE,37,3.1,10.1,67,0.00,,,0.00,WUHU216WMR968SP,2013-08-05 20:43:00,
2013-08-05 15:48:00,74.8,66.2,29.62,WNW,303,0.0,7.2,74,0.00,,,0.00,WUHU216WMR968SP,2013-08-05 20:48:00,
2013-08-05 15:53:00,74.7,68.0,29.59,ESE,119,3.1,5.4,79,0.00,,,0.00,WUHU216WMR968SP,2013-08-05 20:53:00,
2013-08-05 15:58:00,74.8,68.0,29.59,SE,133,0.0,5.4,80,0.00,,,0.00,WUHU216WMR968SP,2013-08-05 20:58:00,
2013-08-05 16:03:00,74.7,68.0,29.59,ESE,123,0.0,4.0,80,0.00,,,0.00,WUHU216WMR968SP,2013-08-05 21:03:00,
2013-08-05 16:08:00,75.0,69.8,29.59,SE,130,0.0,3.1,81,0.00,,,0.00,WUHU216WMR968SP,2013-08-05 21:08:00,
2013-08-05 16:14:00,75.0,69.8,29.59,NNE,26,0.0,2.7,82,0.00,,,0.00,WUHU216WMR968SP,2013-08-05 21:14:00,
2013-08-05 16:19:00,75.0,69.8,29.59,East,83,0.0,3.6,83,0.00,,,0.00,WUHU216WMR968SP,2013-08-05 21:19:00,
2013-08-05 16:24:00,75.0,69.8,29.59,NNE,18,0.0,3.6,84,0.00,,,0.00,WUHU216WMR968SP,2013-08-05 21:24:00,
2013-08-05 16:29:00,75.0,69.8,29.59,ESE,102,0.0,3.1,84,0.00,,,0.00,WUHU216WMR968SP,2013-08-05 21:29:00,
2013-08-05 16:35:00,74.8,69.8,29.59,ESE,110,0.0,3.1,84,0.00,,,0.00,WUHU216WMR968SP,2013-08-05 21:35:00,
2013-08-05 16:40:00,74.7,69.8,29.59,ESE,109,0.0,4.0,84,0.00,,,0.00,WUHU216WMR968SP,2013-08-05 21:40:00,
2013-08-05 16:45:00,74.7,69.8,29.59,SE,130,0.0,4.0,84,0.00,,,0.00,WUHU216WMR968SP,2013-08-05 21:45:00,
2013-08-05 16:50:00,74.8,69.8,29.59,ESE,117,0.0,0.0,85,0.00,,,0.00,WUHU216WMR968SP,2013-08-05 21:50:00,
2013-08-05 16:55:00,75.0,69.8,29.59,SSW,203,0.0,2.2,85,0.00,,,0.00,WUHU216WMR968SP,2013-08-05 21:55:00,
2013-08-05 17:00:00,75.4,69.8,29.59,SE,125,0.0,2.2,85,0.00,,,0.00,WUHU216WMR968SP,2013-08-05 22:00:00,
2013-08-05 17:05:00,75.6,69.8,29.59,SE,125,0.0,0.0,85,0.00,,,0.00,WUHU216WMR968SP,2013-08-05 22:05:00,
2013-08-05 17:10:00,75.6,69.8,29.56,SE,137,0.0,3.1,85,0.00,,,0.00,WUHU216WMR968SP,2013-08-05 22:10:00,
2013-08-05 17:15:00,75.9,69.8,29.56,ESE,118,0.0,3.1,84,0.00,,,0.00,WUHU216WMR968SP,2013-08-05 22:15:00,
2013-08-05 17:20:00,76.3,71.6,29.56,ESE,118,0.0,0.0,84,0.00,,,0.00,WUHU216WMR968SP,2013-08-05 22:20:00,
2013-08-05 17:26:00,76.6,71.6,29.59,ENE,76,0.0,0.0,83,0.00,,,0.00,WUHU216WMR968SP,2013-08-05 22:26:00,
2013-08-05 17:31:00,77.0,71.6,29.59,ENE,73,0.0,0.0,81,0.00,,,0.00,WUHU216WMR968SP,2013-08-05 22:31:00,
2013-08-05 17:36:00,77.2,69.8,29.56,East,91,0.0,0.0,78,0.00,,,0.00,WUHU216WMR968SP,2013-08-05 22:36:00,
2013-08-05 17:41:00,77.9,71.6,29.56,East,91,0.0,0.0,78,0.00,,,0.00,WUHU216WMR968SP,2013-08-05 22:41:00,
2013-08-05 17:46:00,78.1,71.6,29.56,East,91,0.0,0.0,79,0.00,,,0.00,WUHU216WMR968SP,2013-08-05 22:46:00,
2013-08-05 17:52:00,78.1,71.6,29.56,East,91,0.0,0.0,79,0.00,,,0.00,WUHU216WMR968SP,2013-08-05 22:52:00,
2013-08-05 17:57:00,78.1,69.8,29.56,East,91,0.0,0.0,75,0.00,,,0.00,WUHU216WMR968SP,2013-08-05 22:57:00,
2013-08-05 18:02:00,77.9,69.8,29.56,SSE,168,0.0,0.0,74,0.00,,,0.00,WUHU216WMR968SP,2013-08-05 23:02:00,
2013-08-05 18:07:00,78.1,69.8,29.56,SSE,168,0.0,0.0,74,0.00,,,0.00,WUHU216WMR968SP,2013-08-05 23:07:00,
2013-08-05 18:12:00,78.3,69.8,29.56,ESE,110,0.0,0.0,74,0.00,,,0.00,WUHU216WMR968SP,2013-08-05 23:12:00,
2013-08-05 18:17:00,78.6,69.8,29.56,ESE,119,0.0,0.0,74,0.00,,,0.00,WUHU216WMR968SP,2013-08-05 23:17:00,
2013-08-05 18:23:00,78.6,69.8,29.56,SE,127,0.0,0.0,74,0.00,,,0.00,WUHU216WMR968SP,2013-08-05 23:23:00,
2013-08-05 18:28:00,78.8,69.8,29.56,South,184,0.0,3.1,73,0.00,,,0.00,WUHU216WMR968SP,2013-08-05 23:28:00,
2013-08-05 18:33:00,78.8,69.8,29.56,East,96,0.0,3.1,72,0.00,,,0.00,WUHU216WMR968SP,2013-08-05 23:33:00,
2013-08-05 18:38:00,78.6,69.8,29.56,South,181,0.0,2.7,73,0.00,,,0.00,WUHU216WMR968SP,2013-08-05 23:38:00,
2013-08-05 18:43:00,78.4,69.8,29.56,South,181,0.0,3.6,74,0.00,,,0.00,WUHU216WMR968SP,2013-08-05 23:43:00,
2013-08-05 18:48:00,78.4,69.8,29.56,South,186,0.0,3.6,73,0.00,,,0.00,WUHU216WMR968SP,2013-08-05 23:48:00,
2013-08-05 18:54:00,78.3,69.8,29.56,South,186,2.2,4.0,74,0.00,,,0.00,WUHU216WMR968SP,2013-08-05 23:54:00,
2013-08-05 18:59:00,78.3,69.8,29.56,SSE,158,2.2,4.0,74,0.00,,,0.00,WUHU216WMR968SP,2013-08-05 23:59:00,
2013-08-05 19:04:00,78.1,69.8,29.56,South,182,2.2,4.0,75,0.00,,,0.00,WUHU216WMR968SP,2013-08-06 00:04:00,
2013-08-05 19:09:00,78.3,69.8,29.56,South,183,0.0,4.0,75,0.00,,,0.00,WUHU216WMR968SP,2013-08-06 00:09:00,
2013-08-05 19:15:00,78.1,69.8,29.56,SSE,158,0.0,3.1,75,0.00,,,0.00,WUHU216WMR968SP,2013-08-06 00:15:00,
2013-08-05 19:20:00,78.1,69.8,29.56,SSE,167,0.0,3.1,75,0.00,,,0.00,WUHU216WMR968SP,2013-08-06 00:20:00,
2013-08-05 19:25:00,78.1,71.6,29.56,South,183,0.0,3.6,76,0.00,,,0.00,WUHU216WMR968SP,2013-08-06 00:25:00,
2013-08-05 19:30:00,77.9,71.6,29.56,South,183,0.0,3.6,76,0.00,,,0.00,WUHU216WMR968SP,2013-08-06 00:30:00,
2013-08-05 19:35:00,77.9,71.6,29.56,South,183,0.0,2.7,77,0.00,,,0.00,WUHU216WMR968SP,2013-08-06 00:35:00,
2013-08-05 19:41:00,77.9,71.6,29.56,South,180,0.0,4.0,77,0.00,,,0.00,WUHU216WMR968SP,2013-08-06 00:41:00,
2013-08-05 19:46:00,77.9,71.6,29.56,SSE,167,0.0,4.0,77,0.00,,,0.00,WUHU216WMR968SP,2013-08-06 00:46:00,
2013-08-05 19:51:00,77.7,69.8,29.56,SSE,165,0.0,3.6,78,0.00,,,0.00,WUHU216WMR968SP,2013-08-06 00:51:00,
2013-08-05 19:56:00,77.5,69.8,29.56,South,171,0.0,2.7,78,0.00,,,0.00,WUHU216WMR968SP,2013-08-06 00:56:00,
2013-08-05 20:01:00,77.4,69.8,29.56,South,187,0.0,3.1,77,0.00,,,0.00,WUHU216WMR968SP,2013-08-06 01:01:00,
2013-08-05 20:06:00,77.4,69.8,29.56,South,178,0.0,3.1,78,0.00,,,0.00,WUHU216WMR968SP,2013-08-06 01:06:00,
2013-08-05 20:11:00,77.2,69.8,29.56,South,178,0.0,3.1,80,0.00,,,0.00,WUHU216WMR968SP,2013-08-06 01:11:00,
2013-08-05 20:17:00,77.2,69.8,29.56,South,178,0.0,0.0,80,0.00,,,0.00,WUHU216WMR968SP,2013-08-06 01:17:00,
2013-08-05 20:22:00,77.2,71.6,29.56,South,178,0.0,0.0,81,0.00,,,0.00,WUHU216WMR968SP,2013-08-06 01:22:00,
2013-08-05 20:27:00,77.0,71.6,29.56,South,178,0.0,0.0,81,0.00,,,0.00,WUHU216WMR968SP,2013-08-06 01:27:00,
2013-08-05 20:32:00,76.8,71.6,29.56,South,178,0.0,0.0,82,0.00,,,0.00,WUHU216WMR968SP,2013-08-06 01:32:00,
2013-08-05 20:37:00,76.8,71.6,29.56,South,178,0.0,0.0,83,0.00,,,0.00,WUHU216WMR968SP,2013-08-06 01:37:00,
2013-08-05 20:42:00,76.8,71.6,29.56,South,178,0.0,0.0,84,0.00,,,0.00,WUHU216WMR968SP,2013-08-06 01:42:00,
2013-08-05 20:47:00,76.6,71.6,29.56,South,178,0.0,0.0,84,0.00,,,0.00,WUHU216WMR968SP,2013-08-06 01:47:00,
2013-08-05 20:52:00,76.6,71.6,29.56,South,178,0.0,0.0,84,0.00,,,0.00,WUHU216WMR968SP,2013-08-06 01:52:00,
2013-08-05 20:57:00,76.5,71.6,29.56,South,178,0.0,0.0,84,0.00,,,0.00,WUHU216WMR968SP,2013-08-06 01:57:00,
2013-08-05 21:03:00,76.5,71.6,29.56,South,178,0.0,2.7,85,0.00,,,0.00,WUHU216WMR968SP,2013-08-06 02:03:00,
2013-08-05 21:08:00,76.5,71.6,29.56,SSW,196,0.0,2.7,85,0.00,,,0.00,WUHU216WMR968SP,2013-08-06 02:08:00,
2013-08-05 21:13:00,76.5,71.6,29.56,SSE,164,0.0,2.7,86,0.00,,,0.00,WUHU216WMR968SP,2013-08-06 02:13:00,
2013-08-05 21:18:00,76.6,71.6,29.56,SSE,157,0.0,0.0,86,0.00,,,0.00,WUHU216WMR968SP,2013-08-06 02:18:00,
2013-08-05 21:20:00,76.6,71.6,29.56,SSE,157,0.0,0.0,86,0.00,,,0.00,WUHU216WMR968SP,2013-08-06 02:20:00,
2013-08-05 21:26:00,76.6,71.6,29.56,SE,144,0.0,0.0,86,0.00,,,0.00,WUHU216WMR968SP,2013-08-06 02:26:00,
2013-08-05 21:31:00,76.6,71.6,29.56,SSE,168,0.0,0.0,86,0.00,,,0.00,WUHU216WMR968SP,2013-08-06 02:31:00,